Weather in Santo Andre

Brazil     23°44′09″S   46°29′47″W
temp.,
°C
wind,
m/s
gust,
m/s
humid.,
%
clouds,
%
prec.,
mm/h
press.,
hPa
HPBL,
m
24 september, fri
fri2400:00+13sse128630 0.0 1021246
03:00+13ne13815 0.0 1019218
06:00+12ne2480100 0.0 1019157
09:00+18ne235454 0.0 1020485
12:00+25s12379 0.0 1017904
15:00+21sse5459100 0.0 1016477
18:00+16sse4583100 0.0 1018297
21:00+15se2387100 0.0 1020240
25 september, sat
sat2500:00+15e1279100 0.0 1019126
03:00+15se1278100 0.0 1017127
06:00+14s128621 0.0 1019100
09:00+18se227192 0.0 1019351
12:00+23sse32553 0.0 1017814
15:00+23sse545911 0.0 1015687
18:00+17sse458983 0.0 1016421
21:00+17e228560 0.0 1019286
26 september, sun
sun2600:00+17nnw018560 0.7 101876
03:00+17nne128542 1.1 101667
06:00+16e118871 0.2 101716
09:00+22ene12641 0.3 1018450
12:00+28ssw13424 0.0 1016995
15:00+25sse54596 0.0 1015546
18:00+18se458637 0.0 1016283
21:00+19ese128226 0.0 1019143
27 september, mon
mon2700:00+19ne138027 0.0 1019120
03:00+18se1180100 0.0 101837
06:00+17se1188100 0.0 101988
09:00+22se2260100 0.0 1020384
12:00+26sse42531 0.0 1019834
15:00+25se43550 0.0 1016565
18:00+20se358215 0.0 1017270
21:00+20e23760 0.0 1018130
28 september, tue
tue2800:00+19ne14770 0.0 1018145
03:00+19nne24770 0.0 1016129
06:00+18ne11770 0.0 101729
09:00+25e11510 0.0 1018451
12:00+29sse22390 0.0 10161086
15:00+27sse53520 0.0 1013661
18:00+22se34670 0.0 1014198
21:00+23ne1258100 0.1 101478